Retour au catalogue

CZ-4 DEB

ActifPO
NORAD 20888·DEBRIS·🇨🇳 China

Lancé Sep 3, 1990 depuis Taiyuan Satellite Launch Center

Loading…

Prochains Passages (prochaines 24 heures)

TLE

FraisSource: Space-Track

Époque: Sep 14, 2026, 08:48 UTC

1 20888U 90081AY  26257.36698579  .00003065  00000-0  10137-2 0  9997
2 20888  99.1983 127.0196 0176060 340.5681  18.8844 14.30358832839965

Suivez CZ-4 DEB en temps réel avec AllMySat

Download on the App Store